Powrót do katalogu

DELTA 1 DEB

AktywnyLEO
NORAD 39098·DEBRIS·🇺🇸 United States

Wystrzelony Jul 14, 1977 z Cape Canaveral Space Force Station

Loading…

Następne Przeloty (najbliższe 24 godziny)

TLE

Starzejące sięSource: Space-Track

Epoka: Sep 12, 2026, 05:59 UTC

1 39098U 77065GK  26255.24950255  .00003607  00000-0  57310-3 0  9991
2 39098  29.0331 231.6210 0517371 296.0184  58.8002 14.07603205637634

Śledź DELTA 1 DEB w czasie rzeczywistym z AllMySat

Download on the App Store